Change the Weather History Date:

Tuesday, December 3, 2013

  Actual Average Record
Temperature  
Mean Temperature 49 °F 50 °F  
Max Temperature 64 °F 61 °F 80 °F (1991)
Min Temperature 33 °F 39 °F 22 °F (1960)
Degree Days  
Heating Degree Days 16 15  
Month to date heating degree days 48 45  
Since 1 July heating degree days 471 472  
Cooling Degree Days 0 0  
Month to date cooling degree days 0 0  
Year to date cooling degree days 2006 1900  
Moisture  
Dew Point 37 °F    
Average Humidity 67    
Maximum Humidity 100    
Minimum Humidity 34    
Precipitation  
Precipitation T in 0.11 in 2.15 in (1983)
Month to date precipitation T 0.34  
Year to date precipitation 40.28 49.69  
Snow  
Snow 0.00 in - - ()
Month to date snowfall 0.0  
Since 1 July snowfall T  
Snow Depth 0.00 in    
Sea Level Pressure  
Sea Level Pressure 29.95 in    
Wind  
Wind Speed 0 mph (ESE)    
Max Wind Speed 8 mph    
Max Gust Speed 9 mph    
Visibility 5 miles    
Events Fog , Rain    
T = Trace of Precipitation, MM = Missing Value Source: NWS Daily Summary

Daily Weather History Graph

Daily Weather History Graph

Search for Another Location

Airport or City:

Trip Planner

Search our weather history database for the weather conditions in past years. The results will help you decide how hot, cold, wet, or windy it might be!

Date:

Astronomy

Dec. 03, 2013 Rise Set
Actual Time 6:59 AM EST 4:56 PM EST
Civil Twilight 6:32 AM EST 5:24 PM EST
Nautical Twilight 6:00 AM EST 5:55 PM EST
Astronomical Twilight 5:30 AM EST 6:26 PM EST
Moon 7:27 AM EST (12/3) 5:56 PM EST (12/3)
Length of Visible Light 10h 51m
Length of Day
9h 56m
New Moon, 1% of the Moon is Illuminated
Dec 3
New Moon
Dec 9
First Quarter
Dec 17
Full
Dec 25
Last Quarter
Jan 1
New

Hourly Weather History & Observations

Time (EST) Temp. Dew Point Humidity Pressure Visibility Wind Dir Wind Speed Gust Speed Precip Events Conditions
12:12 AM 39.2 °F 37.4 °F 93% 29.88 in 1.5 mi Calm Calm - N/A   Clear
12:22 AM 39.2 °F 37.4 °F 93% 29.88 in 3.0 mi Calm Calm - N/A   Clear
12:54 AM 37.0 °F 35.1 °F 93% 29.89 in 2.0 mi Calm Calm - N/A   Clear
1:02 AM 37.4 °F 35.6 °F 93% 29.89 in 1.0 mi Calm Calm - N/A   Clear
1:12 AM 39.2 °F 37.4 °F 93% 29.88 in 0.8 mi Calm Calm - N/A   Clear
1:22 AM 37.4 °F 35.6 °F 93% 29.89 in 2.0 mi Calm Calm - N/A   Clear
1:42 AM 37.4 °F 35.6 °F 93% 29.89 in 3.0 mi Calm Calm - N/A   Clear
1:54 AM 37.0 °F 35.1 °F 93% 29.90 in 3.0 mi Calm Calm - N/A   Clear
2:35 AM 37.4 °F 33.8 °F 87% 29.90 in 1.2 mi Calm Calm - N/A   Clear
2:38 AM 37.4 °F 35.6 °F 93% 29.90 in 0.5 mi Calm Calm - N/A Fog Fog
2:54 AM 37.0 °F 35.1 °F 93% 29.91 in 0.2 mi Calm Calm - N/A Fog Fog
3:30 AM 37.4 °F 35.6 °F 93% 29.91 in 1.0 mi Calm Calm - N/A   Clear
3:49 AM 37.4 °F 35.6 °F 93% 29.91 in 3.0 mi Calm Calm - N/A   Clear
3:54 AM 37.9 °F 36.0 °F 93% 29.92 in 3.0 mi Calm Calm - N/A   Clear
4:22 AM 37.4 °F 35.6 °F 93% 29.92 in 1.8 mi Calm Calm - N/A   Clear
4:31 AM 35.6 °F 33.8 °F 93% 29.91 in 3.0 mi Calm Calm - N/A   Clear
4:54 AM 35.1 °F 34.0 °F 96% 29.92 in 4.0 mi Calm Calm - N/A   Clear
5:08 AM 33.8 °F 33.8 °F 100% 29.92 in 1.8 mi Calm Calm - N/A   Clear
5:28 AM 33.8 °F 32.0 °F 93% 29.92 in 2.0 mi Calm Calm - N/A   Clear
5:41 AM 35.6 °F 33.8 °F 93% 29.93 in 6.0 mi Calm Calm - N/A   Clear
5:49 AM 35.6 °F 33.8 °F 93% 29.93 in 1.5 mi Calm Calm - N/A   Clear
5:54 AM 35.1 °F 33.1 °F 92% 29.94 in 1.0 mi Calm Calm - N/A   Clear
6:03 AM 33.8 °F 32.0 °F 93% 29.94 in 5.0 mi Calm Calm - N/A   Clear
6:54 AM 36.0 °F 35.1 °F 97% 29.97 in 5.0 mi Calm Calm - N/A   Clear
7:54 AM 36.0 °F 35.1 °F 97% 29.98 in 4.0 mi Calm Calm - N/A   Clear
8:54 AM 44.1 °F 41.0 °F 89% 29.99 in 8.0 mi Calm Calm - N/A   Clear
9:54 AM 51.1 °F 44.1 °F 77% 30.00 in 10.0 mi Calm Calm - N/A   Clear
10:54 AM 57.0 °F 39.0 °F 51% 30.00 in 10.0 mi Calm Calm - N/A   Clear
11:54 AM 60.1 °F 35.1 °F 39% 29.99 in 10.0 mi Calm Calm - N/A   Clear
12:54 PM 62.1 °F 33.1 °F 34% 29.97 in 10.0 mi ENE 5.8 mph - N/A   Clear
1:54 PM 62.1 °F 37.0 °F 39% 29.97 in 10.0 mi Calm Calm - N/A   Clear
2:54 PM 61.0 °F 39.9 °F 46% 29.97 in 10.0 mi Calm Calm - N/A   Scattered Clouds
3:54 PM 60.1 °F 41.0 °F 49% 29.98 in 10.0 mi SSE 4.6 mph - N/A   Mostly Cloudy
4:54 PM 57.9 °F 42.1 °F 56% 30.01 in 10.0 mi Calm Calm - N/A   Overcast
5:54 PM 55.9 °F 42.1 °F 60% 30.02 in 10.0 mi Calm Calm - N/A   Overcast
6:54 PM 51.1 °F 43.0 °F 74% 30.03 in 10.0 mi Calm Calm - N/A   Scattered Clouds
7:54 PM 50.0 °F 43.0 °F 77% 30.03 in 10.0 mi Calm Calm - N/A   Scattered Clouds
8:54 PM 48.9 °F 43.0 °F 80% 30.03 in 10.0 mi Calm Calm - N/A   Mostly Cloudy
9:54 PM 50.0 °F 44.1 °F 80% 30.04 in 10.0 mi Calm Calm - N/A   Overcast
10:54 PM 50.0 °F 45.0 °F 83% 30.04 in 10.0 mi Calm Calm - 0.00 in Rain Light Rain
11:54 PM 51.1 °F 46.0 °F 83% 30.05 in 10.0 mi Calm Calm - 0.00 in   Overcast